Kerkyra, Greece

7:33 PM EEST on September 25, 2016 (GMT +0300)
Ioannis Kapodistrias

Weather History for LGKR - October, 2012

Change the Weather History Date:

Saturday, October 20, 2012

  Actual Average Record
Temperature  
Mean Temperature 69 °F -  
Max Temperature 79 °F 70 °F 79 °F (2012)
Min Temperature 59 °F 55 °F 44 °F (2005)
Cooling Degree Days 4    
Growing Degree Days 19 (Base 50)    
Moisture  
Dew Point 65 °F    
Average Humidity 88    
Maximum Humidity 100    
Minimum Humidity 69    
Precipitation  
Precipitation 0.00 in - - ()
Sea Level Pressure  
Sea Level Pressure 30.05 in    
Wind  
Wind Speed 1 mph ()    
Max Wind Speed 6 mph    
Max Gust Speed -    
Visibility 6.8 miles    
Events      
Averages and records for this station are not official NWS values.
T = Trace of Precipitation, MM = Missing Value Source: Averaged Metar Reports

Daily Weather History Graph

Daily Weather History Graph

Search for Another Location

Airport or City:

Trip Planner

Search our weather history database for the weather conditions in past years. The results will help you decide how hot, cold, wet, or windy it might be!

Date:

Astronomy

Oct. 20, 2012 Rise Set
Actual Time 7:55 AM EEST 6:53 PM EEST
Civil Twilight 7:28 AM EEST 7:20 PM EEST
Nautical Twilight 6:57 AM EEST 7:52 PM EEST
Astronomical Twilight 6:25 AM EEST 8:23 PM EEST
Moon 1:15 PM EEST (10/20) 11:19 PM EEST (10/20)
Length of Visible Light 11h 52m
Length of Day
10h 57m
Waxing Crescent, 31% of the Moon is Illuminated
Oct 20
Waxing Crescent
Oct 22
First Quarter
Oct 29
Full
Nov 7
Last Quarter
Nov 14
New

Hourly Weather History & Observations

Time (EEST) Temp. Heat Index Dew Point Humidity Pressure Visibility Wind Dir Wind Speed Gust Speed Precip Events Conditions
12:20 AM 64.4 °F - 62.6 °F 94% 30.09 in 6.2 mi Calm Calm - N/A   Partly Cloudy
12:50 AM 62.6 °F - 62.6 °F 100% 30.09 in 6.2 mi Calm Calm - N/A   Partly Cloudy
1:20 AM 62.6 °F - 60.8 °F 94% 30.09 in 6.2 mi Calm Calm - N/A   Partly Cloudy
1:50 AM 62.6 °F - 60.8 °F 94% 30.09 in 6.2 mi Calm Calm - N/A   Partly Cloudy
2:20 AM 62.6 °F - 60.8 °F 94% 30.09 in 6.2 mi Calm Calm - N/A   Partly Cloudy
3:00 AM 63 °F - 61 °F 90% 30.10 in 6 mi Calm Calm - -   Scattered Clouds
3:20 AM 62.6 °F - 60.8 °F 94% 30.09 in 6.2 mi Calm Calm - N/A   Partly Cloudy
3:50 AM 62.6 °F - 60.8 °F 94% 30.09 in 6.2 mi Calm Calm - N/A   Partly Cloudy
4:20 AM 62.6 °F - 60.8 °F 94% 30.09 in 6.2 mi Calm Calm - N/A   Partly Cloudy
4:50 AM 62.6 °F - 60.8 °F 94% 30.09 in 6.2 mi Calm Calm - N/A   Partly Cloudy
5:20 AM 62.6 °F - 60.8 °F 94% 30.09 in 6.2 mi Calm Calm - N/A   Partly Cloudy
5:50 AM 59.0 °F - 59.0 °F 100% 30.06 in 6.2 mi Calm Calm - N/A   Partly Cloudy
6:20 AM 59.0 °F - 59.0 °F 100% 30.06 in 6.2 mi Calm Calm - N/A   Partly Cloudy
6:50 AM 59.0 °F - 59.0 °F 100% 30.06 in 6.2 mi Calm Calm - N/A   Partly Cloudy
7:20 AM 59.0 °F - 59.0 °F 100% 30.06 in 6.2 mi Calm Calm - N/A   Partly Cloudy
7:50 AM 59.0 °F - 59.0 °F 100% 30.06 in - Calm Calm - N/A   Clear
8:20 AM 59.0 °F - 59.0 °F 100% 30.06 in - Calm Calm - N/A   Clear
8:50 AM 59.0 °F - 59.0 °F 100% 30.06 in - Calm Calm - N/A   Clear
9:00 AM 60 °F - 59 °F 95% 30.08 in 12 mi Calm Calm - -  
9:20 AM 60.8 °F - 59.0 °F 94% 30.06 in - Calm Calm - N/A   Clear
9:50 AM 66.2 °F - 62.6 °F 88% 30.06 in - Calm Calm - N/A   Clear
10:20 AM 69.8 °F - 64.4 °F 83% 30.06 in - Calm Calm - N/A   Clear
10:50 AM 71.6 °F - 64.4 °F 78% 30.09 in - Calm Calm - N/A   Clear
11:20 AM 73.4 °F - 66.2 °F 78% 30.09 in - Calm Calm - N/A   Clear
11:50 AM 75.2 °F - 66.2 °F 73% 30.09 in - Calm Calm - N/A   Clear
12:20 PM 75.2 °F - 66.2 °F 73% 30.09 in - Calm Calm - N/A   Clear
12:50 PM 77.0 °F - 66.2 °F 69% 30.06 in - SE 4.6 mph - N/A   Clear
1:20 PM 77.0 °F - 66.2 °F 69% 30.06 in - SSE 4.6 mph - N/A   Clear
1:50 PM 77.0 °F - 68.0 °F 74% 30.06 in - SE 3.5 mph - N/A   Clear
2:20 PM 77.0 °F - 68.0 °F 74% 30.06 in - ENE 4.6 mph - N/A   Clear
2:50 PM 78.8 °F - 71.6 °F 78% 30.04 in - East 4.6 mph - N/A   Clear
3:00 PM 80 °F - 72 °F 71% 30.04 in 12 mi East 4.6 mph - -  
3:20 PM 78.8 °F - 71.6 °F 78% 30.04 in - East 4.6 mph - N/A   Clear
3:50 PM 80.6 °F 85.4 °F 73.4 °F 79% 30.01 in - SE 4.6 mph - N/A   Clear
4:20 PM 80.6 °F 85.4 °F 73.4 °F 79% 30.01 in - South 4.6 mph - N/A   Clear
4:50 PM 80.6 °F 85.4 °F 73.4 °F 79% 30.01 in - West 5.8 mph - N/A   Clear
5:20 PM 80.6 °F 85.4 °F 73.4 °F 79% 30.01 in - WSW 5.8 mph - N/A   Clear
5:50 PM 78.8 °F - 71.6 °F 78% 30.01 in - West 4.6 mph - N/A   Clear
6:20 PM 78.8 °F - 71.6 °F 78% 30.01 in - West 4.6 mph - N/A   Clear
6:50 PM 75.2 °F - 69.8 °F 83% 30.01 in - Calm Calm - N/A   Clear
7:20 PM 73.4 °F - 69.8 °F 88% 30.01 in - Calm Calm - N/A   Clear
7:50 PM 73.4 °F - 69.8 °F 88% 30.01 in - Calm Calm - N/A   Clear
8:20 PM 71.6 °F - 69.8 °F 94% 30.01 in - Calm Calm - N/A   Clear
8:50 PM 68.0 °F - 64.4 °F 88% 30.01 in - Calm Calm - N/A   Clear
9:00 PM 67 °F - 65 °F 91% 30.02 in 6 mi Calm Calm - -  
9:20 PM 66.2 °F - 64.4 °F 94% 30.01 in - Calm Calm - N/A   Clear
9:50 PM 64.4 °F - 62.6 °F 94% 30.01 in - Calm Calm - N/A   Clear
10:20 PM 64.4 °F - 62.6 °F 94% 30.01 in - West 3.5 mph - N/A   Clear
10:50 PM 62.6 °F - 62.6 °F 100% 30.01 in - West 3.5 mph - N/A   Clear
11:20 PM 62.6 °F - 62.6 °F 100% 30.01 in - WNW 3.5 mph - N/A   Clear
11:50 PM 62.6 °F - 60.8 °F 94% 30.01 in - Calm Calm - N/A   Clear